John Hopkins Middle School FL US WEATHERSTEM current weather conditions

sailwx.info

Wind from 069 at 3 knots gusting 5

Air temperature 13.0° C
Dewpoint 10.9° C

Last reported at 2019-Nov-17 17:00 UTC.
Time now 2019-Nov-17 17:58 UTC

Location: N 27°46' W 082°39'.
View on Google Maps.

See reports from other nearby stations

  
Tides and Currents Weather Stations Pressure Air Temp Water Temp Dewpoint Dewpoint Depression Visibility Wind Speed Wind Dir Waves Ship Positions
date/time (UTC)wind fromknots sea level pressurealtimeterstation pressurevisibilityair tempwater tempwave heightnotes
2019-Nov-17 17:00 069 3 gusting 5 13.0
2019-Nov-17 16:50 077 1 gusting 6 12.8
2019-Nov-17 16:40 077 1 gusting 6 12.7
2019-Nov-17 16:30 063 12.4
2019-Nov-17 16:20 092 6 gusting 9 12.4
2019-Nov-17 16:10 12.3
2019-Nov-17 16:00 081 1 gusting 8 12.3
2019-Nov-17 15:50 090 3 gusting 7 12.1
2019-Nov-17 15:40 071 1 gusting 7 12.1
2019-Nov-17 15:30 080 2 gusting 6 12.2
2019-Nov-17 15:20 092 2 gusting 6 12.1
2019-Nov-17 15:10 088 2 gusting 5 12.0
2019-Nov-17 15:00 088 2 gusting 8 12.0
2019-Nov-17 14:50 101 2 gusting 7 11.8
2019-Nov-17 14:40 091 0 gusting 7 11.7
2019-Nov-17 14:30 101 1 gusting 8 11.6
2019-Nov-17 14:20 088 2 gusting 6 11.5
2019-Nov-17 14:10 086 4 gusting 9 11.3
2019-Nov-17 14:00 071 5 gusting 9 11.2
2019-Nov-17 13:50 097 6 gusting 10 11.2
2019-Nov-17 13:40 078 7 gusting 10 11.2
2019-Nov-17 13:30 088 4 gusting 10 11.1
2019-Nov-17 13:20 093 5 gusting 7 11.1
2019-Nov-17 13:10 086 3 gusting 9 11.0
2019-Nov-17 13:00 086 6 gusting 8 10.9
2019-Nov-17 12:50 074 4 gusting 10 10.9
2019-Nov-17 12:40 094 1 gusting 9 10.9
2019-Nov-17 12:30 065 5 gusting 9 10.8
2019-Nov-17 12:20 092 6 gusting 10 10.8
2019-Nov-17 12:10 091 7 gusting 9 10.8
2019-Nov-17 12:00 083 6 gusting 9 10.8
2019-Nov-17 11:50 071 2 gusting 10 10.8
2019-Nov-17 11:40 092 3 gusting 12 10.9
2019-Nov-17 11:30 083 4 gusting 10 10.9
2019-Nov-17 11:20 092 6 gusting 7 10.9
2019-Nov-17 11:10 122 4 gusting 8 10.9
2019-Nov-17 11:00 099 3 gusting 6 10.9
2019-Nov-17 10:50 108 2 gusting 7 10.8
2019-Nov-17 10:40 093 1 gusting 7 10.8
2019-Nov-17 10:30 094 5 gusting 6 10.8
2019-Nov-17 10:20 082 6 gusting 11 10.8
2019-Nov-17 10:10 081 3 gusting 8 10.8
2019-Nov-17 10:00 082 6 gusting 12 10.8
2019-Nov-17 09:50 087 6 gusting 7 10.8
2019-Nov-17 09:40 077 4 gusting 10 10.8
2019-Nov-17 09:30 058 1 gusting 6 10.8
2019-Nov-17 09:20 085 0 gusting 7 10.9
2019-Nov-17 09:10 084 3 gusting 10 10.8
2019-Nov-17 09:00 093 5 gusting 7 10.8
2019-Nov-17 08:50 073 6 gusting 8 10.8
2019-Nov-17 08:40 084 3 gusting 6 10.8
2019-Nov-17 08:30 090 1 gusting 8 10.7
2019-Nov-17 08:20 085 1 gusting 6 10.6
2019-Nov-17 08:10 055 2 gusting 7 10.7
2019-Nov-17 08:00 074 4 gusting 6 10.8
2019-Nov-17 07:50 090 5 gusting 10 10.8
2019-Nov-17 07:40 073 3 gusting 7 10.8
2019-Nov-17 07:30 076 6 gusting 7 10.9
2019-Nov-17 07:20 075 3 gusting 8 10.8
2019-Nov-17 07:10 115 6 gusting 9 10.8
2019-Nov-17 07:00 077 3 gusting 7 10.9
2019-Nov-17 06:50 067 2 gusting 8 10.9
2019-Nov-17 06:40 063 1 gusting 7 10.9
2019-Nov-17 06:30 056 0 gusting 9 10.9
2019-Nov-17 06:20 088 6 gusting 9 11.0
2019-Nov-17 06:10 053 5 gusting 9 11.2
2019-Nov-17 06:00 098 5 gusting 9 11.2
2019-Nov-17 05:50 094 3 gusting 7 11.2
2019-Nov-17 05:40 088 4 gusting 7 11.2
2019-Nov-17 05:30 074 6 gusting 9 11.2
2019-Nov-17 05:20 095 3 gusting 7 11.2
2019-Nov-17 05:10 094 2 gusting 7 11.2
2019-Nov-17 05:00 090 5 gusting 8 11.2
2019-Nov-17 04:50 088 7 gusting 10 11.3
2019-Nov-17 04:40 092 1 gusting 9 11.4
2019-Nov-17 04:30 083 4 gusting 9 11.5
2019-Nov-17 04:20 126 0 gusting 7 11.7
2019-Nov-17 04:10 096 6 gusting 9 11.8
2019-Nov-17 04:00 074 4 gusting 8 11.9
2019-Nov-17 03:50 072 6 gusting 9 11.9
2019-Nov-17 03:40 091 2 gusting 9 11.9
2019-Nov-17 03:30 086 1 gusting 9 11.9
2019-Nov-17 03:20 146 1 gusting 9 11.9
2019-Nov-17 03:10 095 8 gusting 13 12.1
2019-Nov-17 03:00 067 4 gusting 10 12.2
2019-Nov-17 02:50 080 3 gusting 13 12.4
2019-Nov-17 02:40 113 6 gusting 8 12.6
2019-Nov-17 02:30 091 5 gusting 11 12.7
2019-Nov-17 02:20 078 3 gusting 10 12.8
2019-Nov-17 02:10 085 6 gusting 13 12.8
2019-Nov-17 02:00 076 4 gusting 14 12.9
2019-Nov-17 01:50 113 7 gusting 12 12.9
2019-Nov-17 01:40 085 4 gusting 14 12.9
2019-Nov-17 01:30 093 1 gusting 13 12.9
2019-Nov-17 01:20 069 7 gusting 13 13.1
2019-Nov-17 01:10 103 6 gusting 11 13.1
2019-Nov-17 01:00 055 12 gusting 16 13.1
2019-Nov-17 00:50 059 5 gusting 18 13.1
2019-Nov-17 00:40 101 6 gusting 14 13.2
2019-Nov-17 00:30 080 7 gusting 13 13.2
2019-Nov-17 00:20 092 11 gusting 14 13.3
2019-Nov-17 00:10 057 6 gusting 13 13.4
2019-Nov-17 00:00 067 11 gusting 17 13.5
2019-Nov-16 23:50 067 10 gusting 15 13.6
2019-Nov-16 23:40 087 7 gusting 14 13.7
2019-Nov-16 23:30 071 7 gusting 14 13.7
2019-Nov-16 23:20 095 7 gusting 16 13.7
2019-Nov-16 23:10 084 10 gusting 12 13.8
2019-Nov-16 23:00 092 11 gusting 17 13.8
2019-Nov-16 22:50 022 6 gusting 15 13.9
2019-Nov-16 22:40 058 4 gusting 14 14.0
2019-Nov-16 22:30 053 6 gusting 13 14.2
2019-Nov-16 22:20 064 7 gusting 13 14.2
2019-Nov-16 22:10 076 13 gusting 15 14.3
2019-Nov-16 22:00 053 6 gusting 15 14.3
2019-Nov-16 21:50 046 7 gusting 15 14.4
2019-Nov-16 21:40 063 9 gusting 15 14.5
2019-Nov-16 21:30 081 2 gusting 15 14.7
2019-Nov-16 21:20 067 4 gusting 14 14.8
2019-Nov-16 21:10 071 6 gusting 15 15.1
2019-Nov-16 21:00 086 6 gusting 13 15.2
2019-Nov-16 20:50 109 7 gusting 17 15.2
2019-Nov-16 20:40 086 7 gusting 15 15.3
2019-Nov-16 20:30 051 6 gusting 13 15.4
2019-Nov-16 20:20 059 13 gusting 17 15.6
2019-Nov-16 20:10 076 8 gusting 14 15.6
2019-Nov-16 20:00 083 6 gusting 14 15.6
2019-Nov-16 19:50 081 10 gusting 16 15.6
2019-Nov-16 19:40 074 7 gusting 13 15.8
2019-Nov-16 19:30 072 8 gusting 16 15.9
2019-Nov-16 19:20 082 6 gusting 13 16.1
2019-Nov-16 19:10 055 8 gusting 15 16.2
2019-Nov-16 19:00 055 8 gusting 14 16.3
2019-Nov-16 18:50 042 15 gusting 16 16.4
2019-Nov-16 18:40 032 6 gusting 15 16.6
2019-Nov-16 18:30 063 4 gusting 16 16.7
2019-Nov-16 18:20 063 9 gusting 17 16.8
2019-Nov-16 18:10 019 6 gusting 14 16.8
2019-Nov-16 18:00 056 7 gusting 15 16.8
2019-Nov-16 17:50 053 10 gusting 15 16.9
2019-Nov-16 17:40 076 13 gusting 16 16.9
2019-Nov-16 17:30 055 16 gusting 16 17.3
2019-Nov-16 17:20 044 4 gusting 18 17.4
2019-Nov-16 17:10 074 6 gusting 16 17.1
2019-Nov-16 17:00 076 7 gusting 12 17.1
2019-Nov-16 16:50 084 6 gusting 16 16.9
2019-Nov-16 16:40 044 7 gusting 12 17.0
2019-Nov-16 16:30 060 8 gusting 12 17.2
2019-Nov-16 16:20 065 5 gusting 15 16.8
2019-Nov-16 16:10 040 5 gusting 14 16.7
2019-Nov-16 16:00 076 11 gusting 13 16.4
2019-Nov-16 15:50 069 11 gusting 13 16.3
2019-Nov-16 15:40 064 9 gusting 13 15.9
2019-Nov-16 15:30 077 3 gusting 11 15.7
2019-Nov-16 15:20 069 8 gusting 11 15.6
2019-Nov-16 15:10 057 12 gusting 13 15.8
2019-Nov-16 15:00 088 6 gusting 9 15.8
2019-Nov-16 14:50 086 4 gusting 12 16.3
2019-Nov-16 14:40 059 2 gusting 10 16.3
2019-Nov-16 14:30 054 1 gusting 11 16.2
2019-Nov-16 14:20 059 9 gusting 11 16.2
2019-Nov-16 14:10 071 7 gusting 13 16.2
2019-Nov-16 14:00 075 3 gusting 13 16.3
2019-Nov-16 13:50 051 1 gusting 10 16.4
2019-Nov-16 13:40 070 7 gusting 13 16.6
2019-Nov-16 13:30 049 8 gusting 12 16.9
2019-Nov-16 13:20 082 8 gusting 13 16.9
2019-Nov-16 13:10 064 4 gusting 9 16.9
2019-Nov-16 13:00 055 1 gusting 9 16.8
2019-Nov-16 12:50 060 6 gusting 11 16.8
2019-Nov-16 12:40 036 4 gusting 13 17.0
2019-Nov-16 12:30 032 10 gusting 13 17.2
2019-Nov-16 12:20 067 2 gusting 13 17.2
2019-Nov-16 12:10 066 2 gusting 6 17.2
2019-Nov-16 12:00 078 6 gusting 12 17.2
2019-Nov-16 11:50 028 0 gusting 16 17.3
2019-Nov-16 11:40 068 7 gusting 9 17.3
2019-Nov-16 11:30 046 1 gusting 12 17.4
2019-Nov-16 11:20 059 4 gusting 10 17.6
2019-Nov-16 11:10 334 6 gusting 11 17.6
2019-Nov-16 11:00 074 6 gusting 12 17.6
2019-Nov-16 10:50 068 3 gusting 10 17.5
2019-Nov-16 10:40 074 2 gusting 12 17.4
2019-Nov-16 10:30 084 3 gusting 9 17.4
2019-Nov-16 10:20 085 0 gusting 7 17.3
2019-Nov-16 10:10 078 4 gusting 10 17.3
2019-Nov-16 10:00 055 5 gusting 12 17.3
2019-Nov-16 09:50 071 5 gusting 8 17.3
2019-Nov-16 09:40 053 0 gusting 9 17.3
2019-Nov-16 09:30 078 4 gusting 7 17.3
2019-Nov-16 09:20 073 2 gusting 8 17.3
2019-Nov-16 09:10 071 4 gusting 9 17.3
2019-Nov-16 09:00 069 5 gusting 6 17.3
2019-Nov-16 08:50 055 4 gusting 9 17.3
2019-Nov-16 08:40 063 0 gusting 8 17.3
2019-Nov-16 08:30 053 3 gusting 7 17.3
2019-Nov-16 08:20 069 5 gusting 9 17.4
2019-Nov-16 08:10 057 2 gusting 9 17.5
2019-Nov-16 08:00 074 9 gusting 10 17.6
2019-Nov-16 07:50 088 3 gusting 10 17.6
2019-Nov-16 07:40 036 4 gusting 10 17.6
2019-Nov-16 07:30 068 5 gusting 13 17.6
2019-Nov-16 07:20 054 5 gusting 10 17.6
2019-Nov-16 07:10 050 4 gusting 10 17.6
2019-Nov-16 07:00 076 4 gusting 9 17.6
2019-Nov-16 06:50 059 4 gusting 9 17.6
2019-Nov-16 06:40 17.5
2019-Nov-16 06:30 069 1 gusting 9 17.6
2019-Nov-16 06:20 063 3 gusting 9 17.6
2019-Nov-16 06:10 071 5 gusting 11 17.7
2019-Nov-16 06:00 065 6 gusting 13 17.7
2019-Nov-16 05:50 078 6 gusting 13 17.7
2019-Nov-16 05:40 065 1 gusting 10 17.8
2019-Nov-16 05:30 093 3 gusting 11 17.8
2019-Nov-16 05:20 065 5 gusting 12 17.8
2019-Nov-16 05:10 062 4 gusting 9 17.8
2019-Nov-16 05:00 072 3 gusting 12 17.8
2019-Nov-16 04:50 058 1 gusting 9 17.9
2019-Nov-16 04:40 065 3 gusting 13 17.9
2019-Nov-16 04:30 084 3 gusting 12 18.0
2019-Nov-16 04:20 059 0 gusting 12 18.1
2019-Nov-16 04:10 088 6 gusting 12 18.1
2019-Nov-16 04:00 059 1 gusting 10 18.2
2019-Nov-16 03:50 071 10 gusting 13 18.3
2019-Nov-16 03:40 070 2 gusting 11 18.2
2019-Nov-16 03:30 051 1 gusting 12 18.2
2019-Nov-16 03:20 065 4 gusting 9 18.1
2019-Nov-16 03:10 055 5 gusting 9 18.1
2019-Nov-16 03:00 059 2 gusting 8 18.0
2019-Nov-16 02:50 075 0 gusting 9 18.1
2019-Nov-16 02:40 076 3 gusting 9 18.3
2019-Nov-16 02:30 071 4 gusting 12 18.4
2019-Nov-16 02:20 033 1 gusting 10 18.5
2019-Nov-16 02:10 055 7 gusting 12 18.6
2019-Nov-16 02:00 18.5
2019-Nov-16 01:50 062 7 gusting 8 18.4
2019-Nov-16 01:40 064 2 gusting 7 18.4
2019-Nov-16 01:30 061 2 gusting 8 18.3
2019-Nov-16 01:20 046 5 gusting 11 18.3
2019-Nov-16 01:10 061 4 gusting 9 18.3
2019-Nov-16 01:00 086 7 gusting 9 18.3
2019-Nov-16 00:50 055 3 gusting 9 18.3
2019-Nov-16 00:40 059 7 gusting 9 18.4
2019-Nov-16 00:30 087 9 gusting 9 18.4
2019-Nov-16 00:20 068 2 gusting 9 18.4
2019-Nov-16 00:10 072 7 gusting 8 18.4
2019-Nov-16 00:00 063 2 gusting 9 18.4
2019-Nov-15 23:50 078 3 gusting 8 18.4
2019-Nov-15 23:40 087 7 gusting 8 18.5
2019-Nov-15 23:30 081 4 gusting 10 18.6
2019-Nov-15 23:20 059 6 gusting 9 18.6
2019-Nov-15 23:10 089 2 gusting 9 18.6
2019-Nov-15 23:00 064 2 gusting 10 18.6
2019-Nov-15 22:50 076 6 gusting 8 18.7
2019-Nov-15 22:40 051 9 gusting 11 18.7
2019-Nov-15 22:30 044 5 gusting 13 18.8
2019-Nov-15 22:20 038 5 gusting 11 18.9
2019-Nov-15 22:10 058 6 gusting 13 19.1
2019-Nov-15 22:00 067 7 gusting 12 19.2
2019-Nov-15 21:50 070 5 gusting 12 19.3
2019-Nov-15 21:40 048 5 gusting 13 19.3
2019-Nov-15 21:30 069 4 gusting 13 19.4
2019-Nov-15 21:20 064 4 gusting 14 19.5
2019-Nov-15 21:10 082 7 gusting 11 19.8
2019-Nov-15 21:00 057 5 gusting 13 19.9
2019-Nov-15 20:50 067 4 gusting 10 20.2
2019-Nov-15 20:40 065 1 gusting 10 20.2
2019-Nov-15 20:30 060 4 gusting 13 20.0
2019-Nov-15 20:20 117 8 gusting 11 20.1
2019-Nov-15 20:10 076 7 gusting 11 20.1
2019-Nov-15 20:00 070 8 gusting 10 20.1
2019-Nov-15 19:50 068 0 gusting 12 20.1
2019-Nov-15 19:40 076 7 gusting 12 20.0
2019-Nov-15 19:30 044 7 gusting 13 20.1
2019-Nov-15 19:20 065 6 gusting 11 20.2
2019-Nov-15 19:10 061 7 gusting 12 20.3
2019-Nov-15 19:00 072 5 gusting 11 20.4
2019-Nov-15 18:50 076 12 gusting 13 20.6
2019-Nov-15 18:40 049 2 gusting 10 20.7
2019-Nov-15 18:30 076 7 gusting 12 20.7
2019-Nov-15 18:20 067 7 gusting 10 20.7
2019-Nov-15 18:10 067 6 gusting 10 20.6
2019-Nov-15 18:00 065 1 gusting 10 20.5
2019-Nov-15 17:50 058 5 gusting 8 20.4
2019-Nov-15 17:40 068 3 gusting 11 20.3
2019-Nov-15 17:30 063 5 gusting 12 20.2
2019-Nov-15 17:20 063 9 gusting 10 20.3
2019-Nov-15 17:10 20.6
2019-Nov-15 17:00 018 3 gusting 10 20.8